Regional Weather Roundup
Issued by NWS

Home | Current Version | Previous Version | Text Only | Print | Product List | Glossary On
Versions: 1 2 3 4 5 6 7 8 9 10 11 12 13 14 15 16 17 18 19 20 21 22 23 24 25 26 27 28 29 30 31 32 33 34 35 36 37 38 39 40 41 42 43 44 45 46 47 48 49 50
000
ASUS43 KLSX 030059
RWRMO

WEATHER SUMMARY FOR MISSOURI
NATIONAL WEATHER SERVICE SPRINGFIELD MO
700 PM CST MON MAR 02 2015

NOTE: "FAIR" INDICATES FEW OR NO CLOUDS BELOW 12,000 FEET WITH NO
       SIGNIFICANT WEATHER AND/OR OBSTRUCTIONS TO VISIBILITY.
       CURRENT SKY AND/OR WEATHER CONDITIONS ARE NOT AVAILABLE FOR
       CHILLICOTHE AND FARMINGTON.

MOZ001>031-035>038-043-044-053-054-030200-
...NORTHERN AND WESTERN MISSOURI...

CITY           SKY/WX    TMP DP  RH WIND       PRES   REMARKS
KANSAS CTY INT CLOUDY    33  20  58 SE10      30.16F WCI  25
KANSAS C DTWN  CLOUDY    36  19  50 SE9       30.18F WCI  29
LEE`S SUMMIT   CLOUDY    33  20  58 SE7       30.17F WCI  27
ST JOSEPH      CLOUDY    34  19  54 SE16      30.17F WCI  24
CHILLICOTHE      N/A     34  19  54 SE6       30.24R WCI  29
KIRKSVILLE     CLOUDY    31  23  72 SE9       30.23F WCI  23

$$
MOZ066>068-077>081-088>096-101>105-030200-
...SOUTHWEST MISSOURI...

CITY           SKY/WX    TMP DP  RH WIND       PRES   REMARKS
SPRINGFIELD    CLOUDY    35  23  61 S18       30.19F WCI  24
JOPLIN         CLOUDY    35  26  69 SE13      30.18F WCI  26

$$
MOZ032>034-039>042-045>050-055>058-069>072-030200-
...CENTRAL MISSOURI...

CITY           SKY/WX    TMP DP  RH WIND       PRES   REMARKS
COLUMBIA       CLOUDY    33  20  58 SE7       30.24F WCI  27
JEFFERSON CITY CLOUDY    34  20  56 E7        30.27F WCI  28
ROLLA          CLOUDY    34  19  54 E8        30.22F WCI  27
SEDALIA        CLOUDY    34  21  59 SE9       30.22F WCI  27
OSAGE BEACH    CLOUDY    37  19  48 SE5       30.22F

$$
MOZ051-052-059>065-030200-
...EAST CENTRAL MISSOURI...

CITY           SKY/WX    TMP DP  RH WIND       PRES   REMARKS
ST LOUIS INTL  CLOUDY    32  19  58 E10       30.32F WCI  24
SPIRIT OF STL  MOCLDY    31  18  58 E5        30.30F WCI  26
ST CHARLES     MOCLDY    28  21  75 E8        30.33F WCI  20

$$
MOZ072>076-082>087-097>100-106>115-030200-
...SOUTH CENTRAL AND SOUTHEAST MISSOURI...

CITY           SKY/WX    TMP DP  RH WIND       PRES   REMARKS
CAPE GIRARDEAU CLOUDY    37  24  59 E3        30.33F
FARMINGTON     CLOUDY    32  21  64 E7        30.31F WCI  26
POPLAR BLUFF   CLOUDY    35  23  61 NE7       30.29F WCI  29
WEST PLAINS    CLOUDY    36  18  48 SE5       30.25S

$$



USA.gov is the U.S. government's official web portal to all federal, state and local government web resources and services.